Kaikoura (NZKI)

Aerodrome — Elev 19
New Zealand
S042.25.30.000 E173.36.19.000
Loading chart...

Current Weather

NZKI 212200Z 27008KT 210V290 20KM NCD 10/04 Q1019 RMK AUTO NZWB VATSIM USE ONLY

Published 47 minutes ago

Airport Activity

Loading chart...
Loading chart...

Standard ATC Positions

CallsignRadio Name / Freq / Voice Room / TypeFrequencyVoice RoomType
NZCH-K_CTR Christchurch Control
129.400
nzch-k_ctr
129.400nzch-k_ctr
UNICOM NZZC UNICOM
122.800
unicom_nzzc
122.800unicom_nzzc

Charts